Notices

What's New in latest Release from April 7th, 2021:

- Updated Glossary, including Speed of Maximum Gust, and Total Hourly Precipitation

- Updated national and regional climate services offices contacts and prices information

- Addition of station inventory lists for 1981-2010, 1971-2000, and 1961-1990 Normals.

If you haven't already, please take our survey and provide feedback about our website: https://eccc.sondage-survey.ca/f/LanguageSelection.aspx?s=442ca660-fcf1-47c0-95a9-59707d6fd709

Hourly Data Report for April 25, 2016

MIRAMICHI RCS
NEW BRUNSWICK

47°00'34.000" N
65°27'54.000" W
33.00 m
8100989
71744
ACQ

Download Data

Hourly Data (April 2016)
Hourly Data Report for April 25, 2016
TIME
LST
Temp Definition
°C
Dew Point Definition
°C
Rel Hum Definition
%
Precip. Amount Definition
mm

Wind Dir Definition
10's deg

Wind Spd Definition
km/h
Visibility Definition
km
Stn Press Definition
kPa
Hmdx Definition


Wind Chill Definition


Weather Definition


00:00 -2.2 -7.9 65 0.0 26 5   100.88   -4 LegendNANA
01:00 -1.0 -7.7 60 0.0 26 7   100.86   -4 LegendNANA
02:00 -0.1 -7.8 56 0.0 28 7   100.84   -3 LegendNANA
03:00 0.1 -7.5 56 0.0 29 8   100.82     LegendNANA
04:00 0.2 -7.3 57 0.0 29 11   100.82     LegendNANA
05:00 -0.8 -6.6 65 0.0 28 9   100.86   -4 LegendNANA
06:00 -0.9 -6.3 67 0.0 28 10   100.92   -4 LegendNANA
07:00 0.4 -7.0 57 0.0 30 12   100.94     LegendNANA
08:00 1.7 -10.7 39 0.0 32 14   100.96     LegendNANA
09:00 2.5 -12.2 33 0.0 31 16   100.93     LegendNANA
10:00 3.1 -13.5 28 0.0 31 19   100.90     LegendNANA
11:00 4.0 -13.7 26 0.0 30 19   100.84     LegendNANA
12:00 4.9 -13.5 25 0.0 29 20   100.78     LegendNANA
13:00 5.5 -12.6 26 0.0 29 18   100.74     LegendNANA
14:00 5.7 -13.0 25 0.0 30 18   100.69     LegendNANA
15:00 5.4 -13.8 24 0.0 29 23   100.68     LegendNANA
16:00 5.7 -13.4 24 0.0 29 22   100.68     LegendNANA
17:00 6.0 -13.6 23 0.0 30 19   100.70     LegendNANA
18:00 4.8 -14.2 24 0.0 30 18   100.73     LegendNANA
19:00 3.8 -13.1 28 0.0 31 15   100.79     LegendNANA
20:00 2.3 -12.5 33 0.0 30 9   100.86     LegendNANA
21:00 1.1 -11.3 39 0.0 29 8   100.92     LegendNANA
22:00 0.3 -10.6 44 0.0 31 6   100.92     LegendNANA
23:00 -0.8 -9.6 51 0.0 28 6   100.93   -3 LegendNANA

Notes on Data Quality.

Legend

  • E = Estimated
  • M = Missing
  • NA = Not Available*
  • [empty] = Indicates an unobserved value
Date modified: